STARLINK-32181 (60349 NORAD) Tracking and Keplerian Element Data

This shows tracking and keplerian element data for the satellite.

Feedback or suggestion? Click here.




ElementValue
Catalog60349
NameSTARLINK-32181
Epoch Orbit1113
Epoch Day286.73687355
Epoch Year2024
RAAN297.9566
Inclination53.1619
Eccentricity0.0001375
Argument of Perigee102.999
Mean Anonmoly257.1164
Mean Motion15.30203953
Decay Rate-1.244E-05
L11 60349U 24136W 24286.73687355 -.00001244 00000+0 -29871-4 0 9997
L22 60349 53.1619 297.9566 0001375 102.9990 257.1164 15.30203953 11132



Live tracking and technical data element details for STARLINK-32181 (NORAD 60349). STARLINK-32181 can be tracked NOW for your location showing map with azimuth and elevation plus other details from your city location.







IsCatalogInMostPopularTable: catalog: 60349, numindb: 9
Update: records affected: 1



GetName: 60349 STARLINK-32181

Hit Count: updated at: Tue, 03 Dec 2024 01:50:20 GMT